Sleetmute, AK

8:32 PM AKDT on March 22, 2017 (GMT -0800)
Sleetmute

Weather History for PASL - October, 2013

Change the Weather History Date:

Thursday, October 10, 2013

  Actual Average Record
Temperature  
Mean Temperature 40 °F -  
Max Temperature 46 °F 35 °F 46 °F (2013)
Min Temperature 35 °F 24 °F 15 °F (1998)
Degree Days  
Heating Degree Days 24    
Moisture  
Dew Point 38 °F    
Average Humidity 91    
Maximum Humidity 93    
Minimum Humidity 81    
Precipitation  
Precipitation 0.01 in - - ()
Sea Level Pressure  
Sea Level Pressure 29.55 in    
Wind  
Wind Speed 5 mph (SE)    
Max Wind Speed 10 mph    
Max Gust Speed -    
Visibility 9 miles    
Events      
Averages and records for this station are not official NWS values.
T = Trace of Precipitation, MM = Missing Value Source: NWS Daily Summary

Daily Weather History Graph

Daily Weather History Graph

Search for Another Location

Airport or City:

Trip Planner

Search our weather history database for the weather conditions in past years. The results will help you decide how hot, cold, wet, or windy it might be!

Date:

Astronomy

Oct. 10, 2013 Rise Set
Actual Time 9:00 AM AKDT 7:29 PM AKDT
Civil Twilight 8:15 AM AKDT 8:13 PM AKDT
Nautical Twilight 7:25 AM AKDT 9:04 PM AKDT
Astronomical Twilight 6:32 AM AKDT 9:56 PM AKDT
Moon 4:10 PM AKDT (10/10) 11:13 PM AKDT (10/10)
Length of Visible Light 11h 57m
Length of Day
10h 29m
Waxing Crescent, 37% of the Moon is Illuminated
Oct 10
Waxing Crescent
Oct 11
First Quarter
Oct 18
Full
Oct 26
Last Quarter
Nov 3
New

Hourly Weather History & Observations

Time (AKDT) Temp. Windchill Dew Point Humidity Pressure Visibility Wind Dir Wind Speed Gust Speed Precip Events Conditions
12:16 AM 39.2 °F 35.0 °F 35.6 °F 87% 29.67 in 10.0 mi SSE 5.8 mph - N/A   Overcast
12:36 AM 39.2 °F 34.2 °F 35.6 °F 87% 29.66 in 10.0 mi SE 6.9 mph - N/A   Overcast
12:56 AM 39.2 °F 35.9 °F 35.6 °F 87% 29.65 in 10.0 mi SSE 4.6 mph - N/A   Overcast
1:16 AM 39.2 °F 35.0 °F 37.4 °F 93% 29.65 in 10.0 mi SSE 5.8 mph - N/A   Overcast
1:36 AM 39.2 °F 35.0 °F 37.4 °F 93% 29.64 in 10.0 mi SSE 5.8 mph - N/A   Overcast
1:56 AM 39.2 °F 34.2 °F 37.4 °F 93% 29.63 in 10.0 mi SSE 6.9 mph - N/A   Overcast
2:16 AM 41.0 °F 36.4 °F 37.4 °F 87% 29.63 in 10.0 mi SSE 6.9 mph - N/A   Overcast
2:36 AM 39.2 °F 32.5 °F 37.4 °F 93% 29.62 in 10.0 mi SSE 10.4 mph - N/A   Overcast
2:56 AM 39.2 °F 34.2 °F 37.4 °F 93% 29.61 in 10.0 mi SE 6.9 mph - N/A   Overcast
3:16 AM 39.2 °F 34.2 °F 37.4 °F 93% 29.61 in 10.0 mi SSE 6.9 mph - N/A   Overcast
3:36 AM 39.2 °F 34.2 °F 37.4 °F 93% 29.61 in 10.0 mi SSE 6.9 mph - N/A   Overcast
3:56 AM 39.2 °F 35.0 °F 37.4 °F 93% 29.60 in 10.0 mi SE 5.8 mph - N/A   Overcast
4:16 AM 39.2 °F 35.0 °F 37.4 °F 93% 29.59 in 10.0 mi SE 5.8 mph - N/A   Overcast
4:36 AM 39.2 °F 35.9 °F 37.4 °F 93% 29.59 in 10.0 mi SSE 4.6 mph - N/A   Overcast
4:56 AM 39.2 °F 34.2 °F 37.4 °F 93% 29.58 in 10.0 mi SE 6.9 mph - 0.01 in   Overcast
5:36 AM 39.2 °F 35.0 °F 37.4 °F 93% 29.57 in 10.0 mi SE 5.8 mph - N/A   Overcast
5:56 AM 39.2 °F 34.2 °F 37.4 °F 93% 29.57 in 10.0 mi SSE 6.9 mph - N/A   Overcast
6:16 AM 39.2 °F 35.0 °F 37.4 °F 93% 29.56 in 10.0 mi SE 5.8 mph - N/A   Overcast
6:56 AM 39.2 °F 35.0 °F 37.4 °F 93% 29.55 in 10.0 mi ESE 5.8 mph - N/A   Overcast
7:16 AM 39.2 °F 35.0 °F 37.4 °F 93% 29.54 in 9.0 mi SE 5.8 mph - N/A   Overcast
7:36 AM 39.2 °F 35.0 °F 37.4 °F 93% 29.54 in 10.0 mi SE 5.8 mph - N/A   Overcast
8:16 AM 39.2 °F 35.0 °F 37.4 °F 93% 29.53 in 10.0 mi SE 5.8 mph - N/A   Overcast
8:56 AM 39.2 °F 34.2 °F 37.4 °F 93% 29.53 in 10.0 mi SE 6.9 mph - N/A   Overcast
9:16 AM 39.2 °F 33.6 °F 37.4 °F 93% 29.52 in 10.0 mi SE 8.1 mph - N/A   Overcast
9:36 AM 39.2 °F 34.2 °F 37.4 °F 93% 29.52 in 10.0 mi SE 6.9 mph - N/A   Overcast
9:56 AM 39.2 °F 33.6 °F 37.4 °F 93% 29.52 in 10.0 mi SE 8.1 mph - N/A   Overcast
11:16 AM 39.2 °F 34.2 °F 37.4 °F 93% 29.51 in 10.0 mi SE 6.9 mph - N/A   Overcast
11:36 AM 41.0 °F 37.1 °F 37.4 °F 87% 29.51 in 10.0 mi SE 5.8 mph - N/A   Overcast
11:56 AM 41.0 °F 35.8 °F 37.4 °F 87% 29.51 in 10.0 mi SSE 8.1 mph - N/A   Overcast
12:16 PM 41.0 °F 35.8 °F 37.4 °F 87% 29.51 in 10.0 mi SSE 8.1 mph - N/A   Overcast
12:36 PM 41.0 °F 35.8 °F 39.2 °F 93% 29.51 in 10.0 mi SE 8.1 mph - N/A   Overcast
1:16 PM 41.0 °F 38.0 °F 39.2 °F 93% 29.51 in 5.0 mi SE 4.6 mph - N/A   Overcast
1:36 PM 42.8 °F 40.1 °F 39.2 °F 87% 29.51 in 5.0 mi SE 4.6 mph - N/A   Overcast
1:56 PM 42.8 °F - 39.2 °F 87% 29.51 in 8.0 mi Calm Calm - N/A   Overcast
2:16 PM 42.8 °F - 39.2 °F 87% 29.51 in 9.0 mi Calm Calm - N/A   Overcast
2:36 PM 42.8 °F 40.1 °F 39.2 °F 87% 29.50 in 10.0 mi SE 4.6 mph - N/A   Overcast
2:56 PM 42.8 °F 38.6 °F 41.0 °F 93% 29.50 in 10.0 mi SSE 6.9 mph - N/A   Overcast
3:16 PM 42.8 °F 41.1 °F 41.0 °F 93% 29.50 in 10.0 mi SE 3.5 mph - N/A   Overcast
3:36 PM 44.6 °F 43.1 °F 42.8 °F 93% 29.50 in 10.0 mi ESE 3.5 mph - N/A   Overcast
3:56 PM 44.6 °F 41.4 °F 42.8 °F 93% 29.50 in 10.0 mi SE 5.8 mph - N/A   Overcast
4:36 PM 44.6 °F 41.4 °F 42.8 °F 93% 29.49 in 10.0 mi SE 5.8 mph - N/A   Overcast
4:56 PM 44.6 °F 43.1 °F 42.8 °F 93% 29.49 in 10.0 mi SSE 3.5 mph - N/A   Overcast
5:36 PM 46.4 °F 41.9 °F 42.8 °F 87% 29.49 in 10.0 mi SSE 9.2 mph - N/A   Overcast
5:56 PM 46.4 °F 43.5 °F 41.0 °F 81% 29.49 in 10.0 mi South 5.8 mph - N/A   Overcast
6:16 PM 46.4 °F 42.9 °F 41.0 °F 81% 29.49 in 10.0 mi SE 6.9 mph - N/A   Overcast
6:36 PM 46.4 °F 43.5 °F 41.0 °F 81% 29.49 in 10.0 mi SE 5.8 mph - N/A   Overcast
6:56 PM 46.4 °F 43.5 °F 42.8 °F 87% 29.49 in 10.0 mi SE 5.8 mph - N/A   Partly Cloudy
7:36 PM 44.6 °F - 39.2 °F 81% 29.50 in 10.0 mi Calm Calm - N/A   Partly Cloudy
7:56 PM 42.8 °F - 39.2 °F 87% 29.51 in 7.0 mi Calm Calm - N/A   Scattered Clouds
8:16 PM 41.0 °F - 37.4 °F 87% 29.52 in 9.0 mi Calm Calm - N/A   Partly Cloudy
8:36 PM 39.2 °F - 37.4 °F 93% 29.52 in 9.0 mi Calm Calm - N/A   Clear
8:56 PM 39.2 °F - 37.4 °F 93% 29.53 in 9.0 mi Calm Calm - N/A   Clear
9:16 PM 37.4 °F - 35.6 °F 93% 29.54 in 9.0 mi Calm Calm - N/A   Partly Cloudy
9:36 PM 37.4 °F - 35.6 °F 93% 29.54 in 9.0 mi Calm Calm - N/A   Partly Cloudy
9:56 PM 35.6 °F - 33.8 °F 93% 29.55 in 5.0 mi Calm Calm - N/A   Clear
10:16 PM 35.6 °F - 33.8 °F 93% 29.55 in 9.0 mi Calm Calm - N/A   Clear
10:36 PM 35.6 °F - 33.8 °F 93% 29.56 in 10.0 mi Calm Calm - N/A   Scattered Clouds
10:56 PM 35.6 °F - 33.8 °F 93% 29.57 in 4.0 mi Calm Calm - N/A   Mostly Cloudy
11:16 PM 35.6 °F - 33.8 °F 93% 29.57 in 7.0 mi Calm Calm - N/A   Overcast
11:36 PM 35.6 °F - 33.8 °F 93% 29.57 in 8.0 mi Calm Calm - N/A   Overcast